Location: Azul
(36.7830°S, 59.8500°W)
Time: 09:19:59
(UTC-03:00)

NOAA 19 - Pass Details

Date: 31 October 2021
Orbit: 840 x 861 km, 99.2° (Epoch: 07 December)

Event Time Altitude Azimuth Distance (km) Brightness Sun altitude
Rises 20:14:25 0° 163° (SSE) 3,473 8.5 -8.7°
Reaches altitude 10° 20:16:51 10° 159° (SSE) 2,528 7.8 -9.2°
Maximum altitude 20:22:25 61° 78° (ENE) 977 5.3 -10.2°
Drops below altitude 10° 20:27:54 10° 358° (N) 2,490 7.4 -11.2°
Sets 20:30:17 0° 354° (N) 3,416 8.1 -11.6°
